• In Hungary
  • List of Countries
  • For 7 days
  • Water Temperature
  • Satellite Maps
  • Weather Map
  • News
  • Weather Widgets
  • user-avatar
    Login

    Hourly Weather Karachi

    Today, 26 September, Tuesday

    Time Temperature Precipitation Wind Pressure Humidity
    00:00 +29°C° 0 mm 4 mps 753 mmHg 79%
    01:00 +29°C° 0 mm 4 mps 753 mmHg 80%
    02:00 +29°C° 0 mm 4 mps 753 mmHg 80%
    03:00 +28°C° 0 mm 4 mps 753 mmHg 81%
    04:00 +28°C° 0 mm 4 mps 753 mmHg 83%
    05:00 +29°C° 0 mm 4 mps 753 mmHg 81%
    06:00 +29°C° 0 mm 4 mps 753 mmHg 80%
    07:00 +29°C° 0 mm 4 mps 753 mmHg 78%
    08:00 +30°C° 0 mm 5 mps 754 mmHg 71%
    09:00 +33°C° 0 mm 5 mps 754 mmHg 63%
    10:00 +34°C° 0 mm 4 mps 754 mmHg 56%
    11:00 +35°C° 0 mm 5 mps 753 mmHg 54%
    12:00 +35°C° 0 mm 5 mps 753 mmHg 53%
    13:00 +36°C° 0 mm 6 mps 753 mmHg 51%
    14:00 +35°C° 0 mm 6 mps 752 mmHg 53%
    15:00 +35°C° 0 mm 6 mps 752 mmHg 55%
    16:00 +34°C° 0 mm 5 mps 752 mmHg 54%
    17:00 +33°C° 0 mm 5 mps 753 mmHg 61%
    18:00 +32°C° 0 mm 5 mps 753 mmHg 67%
    19:00 +30°C° 0 mm 5 mps 753 mmHg 73%
    20:00 +30°C° 0 mm 5 mps 754 mmHg 75%
    21:00 +30°C° 0 mm 5 mps 754 mmHg 76%
    22:00 +29°C° 0 mm 4 mps 754 mmHg 78%
    23:00 +29°C° 0 mm 4 mps 754 mmHg 79%

    Tomorrow, 27 September, Wednesday

    Time Temperature Precipitation Wind Pressure Humidity
    00:00 +29°C° 0 mm 4 mps 754 mmHg 80%
    01:00 +29°C° 0 mm 4 mps 754 mmHg 81%
    02:00 +29°C° 0 mm 4 mps 754 mmHg 82%
    03:00 +28°C° 0 mm 4 mps 754 mmHg 82%
    04:00 +28°C° 0 mm 4 mps 754 mmHg 83%
    05:00 +28°C° 0 mm 4 mps 754 mmHg 82%
    06:00 +29°C° 0 mm 4 mps 754 mmHg 80%
    07:00 +29°C° 0 mm 4 mps 755 mmHg 79%
    08:00 +30°C° 0 mm 5 mps 755 mmHg 71%
    09:00 +33°C° 0 mm 5 mps 755 mmHg 63%
    10:00 +34°C° 0 mm 5 mps 755 mmHg 55%
    11:00 +35°C° 0 mm 5 mps 754 mmHg 53%
    12:00 +35°C° 0 mm 6 mps 754 mmHg 51%
    13:00 +36°C° 0 mm 6 mps 753 mmHg 49%
    14:00 +35°C° 0 mm 6 mps 753 mmHg 51%
    15:00 +35°C° 0 mm 6 mps 753 mmHg 54%
    16:00 +34°C° 0 mm 6 mps 753 mmHg 56%
    17:00 +33°C° 0 mm 6 mps 753 mmHg 61%
    18:00 +32°C° 0 mm 5 mps 753 mmHg 67%
    19:00 +30°C° 0 mm 5 mps 754 mmHg 72%
    20:00 +30°C° 0 mm 5 mps 754 mmHg 74%
    21:00 +30°C° 0 mm 5 mps 754 mmHg 76%
    22:00 +30°C° 0 mm 5 mps 754 mmHg 77%
    23:00 +29°C° 0 mm 5 mps 754 mmHg 79%

    Day after tomorrow, 28 September, Thursday

    Time Temperature Precipitation Wind Pressure Humidity
    00:00 +29°C° 0 mm 5 mps 754 mmHg 80%
    01:00 +29°C° 0 mm 5 mps 753 mmHg 81%
    02:00 +29°C° 0 mm 5 mps 753 mmHg 82%
    03:00 +29°C° 0 mm 5 mps 753 mmHg 83%
    04:00 +29°C° 0 mm 5 mps 753 mmHg 83%
    05:00 +29°C° 0 mm 5 mps 753 mmHg 82%
    06:00 +29°C° 0 mm 5 mps 753 mmHg 80%
    07:00 +29°C° 0 mm 5 mps 754 mmHg 79%
    08:00 +32°C° 0 mm 5 mps 754 mmHg 71%
    09:00 +33°C° 0 mm 6 mps 754 mmHg 63%
    10:00 +35°C° 0 mm 6 mps 754 mmHg 55%
    11:00 +35°C° 0 mm 6 mps 753 mmHg 54%
    12:00 +36°C° 0 mm 6 mps 753 mmHg 53%
    13:00 +36°C° 0 mm 7 mps 752 mmHg 53%
    14:00 +35°C° 0 mm 7 mps 752 mmHg 56%
    15:00 +34°C° 0 mm 7 mps 752 mmHg 60%
    16:00 +34°C° 0 mm 7 mps 752 mmHg 64%
    17:00 +33°C° 0 mm 7 mps 752 mmHg 68%
    18:00 +32°C° 0 mm 6 mps 752 mmHg 72%
    19:00 +30°C° 0 mm 6 mps 753 mmHg 77%
    20:00 +30°C° 0 mm 6 mps 753 mmHg 77%
    21:00 +30°C° 0 mm 5 mps 753 mmHg 78%
    22:00 +30°C° 0 mm 5 mps 754 mmHg 79%
    23:00 +30°C° 0 mm 5 mps 753 mmHg 80%

    29 September, Friday

    Time Temperature Precipitation Wind Pressure Humidity
    00:00 +29°C° 0 mm 5 mps 753 mmHg 80%
    01:00 +29°C° 0 mm 5 mps 753 mmHg 81%
    02:00 +29°C° 0 mm 5 mps 753 mmHg 81%
    03:00 +29°C° 0 mm 5 mps 752 mmHg 82%
    04:00 +29°C° 0 mm 5 mps 752 mmHg 83%
    05:00 +29°C° 0 mm 6 mps 752 mmHg 82%
    06:00 +29°C° 0 mm 6 mps 753 mmHg 80%
    07:00 +29°C° 0 mm 6 mps 753 mmHg 79%
    08:00 +32°C° 0 mm 6 mps 753 mmHg 71%
    09:00 +33°C° 0 mm 6 mps 753 mmHg 62%
    10:00 +35°C° 0 mm 6 mps 753 mmHg 54%
    11:00 +36°C° 0 mm 6 mps 753 mmHg 52%
    12:00 +36°C° 0 mm 6 mps 752 mmHg 50%
    13:00 +38°C° 0 mm 6 mps 752 mmHg 48%
    14:00 +36°C° 0 mm 7 mps 751 mmHg 53%
    15:00 +35°C° 0 mm 7 mps 751 mmHg 57%
    16:00 +34°C° 0 mm 7 mps 751 mmHg 62%
    17:00 +33°C° 0 mm 6 mps 752 mmHg 66%
    18:00 +32°C° 0 mm 6 mps 752 mmHg 70%
    19:00 +32°C° 0 mm 6 mps 753 mmHg 75%
    20:00 +30°C° 0 mm 5 mps 753 mmHg 76%
    21:00 +30°C° 0 mm 5 mps 753 mmHg 77%
    22:00 +30°C° 0 mm 5 mps 754 mmHg 78%
    23:00 +30°C° 0 mm 5 mps 754 mmHg 79%

    30 September, Saturday

    Time Temperature Precipitation Wind Pressure Humidity
    00:00 +30°C° 0 mm 4 mps 753 mmHg 79%
    01:00 +29°C° 0 mm 4 mps 753 mmHg 80%
    02:00 +29°C° 0 mm 4 mps 753 mmHg 81%
    03:00 +29°C° 0 mm 4 mps 753 mmHg 82%
    04:00 +29°C° 0 mm 4 mps 753 mmHg 83%
    05:00 +29°C° 0 mm 4 mps 753 mmHg 82%
    06:00 +29°C° 0 mm 4 mps 754 mmHg 80%
    07:00 +30°C° 0 mm 4 mps 754 mmHg 79%
    08:00 +32°C° 0 mm 4 mps 754 mmHg 72%
    09:00 +33°C° 0 mm 4 mps 754 mmHg 64%
    10:00 +35°C° 0 mm 4 mps 754 mmHg 57%
    11:00 +35°C° 0 mm 4 mps 754 mmHg 55%
    12:00 +36°C° 0 mm 5 mps 753 mmHg 53%
    13:00 +37°C° 0 mm 5 mps 753 mmHg 51%
    14:00 +36°C° 0 mm 5 mps 753 mmHg 55%
    15:00 +35°C° 0 mm 6 mps 753 mmHg 59%
    16:00 +34°C° 0 mm 6 mps 753 mmHg 63%
    17:00 +33°C° 0 mm 6 mps 753 mmHg 68%
    18:00 +33°C° 0 mm 5 mps 754 mmHg 72%
    19:00 +32°C° 0 mm 5 mps 754 mmHg 76%
    20:00 +32°C° 0 mm 5 mps 754 mmHg 77%
    21:00 +30°C° 0 mm 5 mps 754 mmHg 78%
    22:00 +30°C° 0 mm 4 mps 755 mmHg 80%
    23:00 +30°C° 0 mm 4 mps 754 mmHg 80%

    1 October, Sunday

    Time Temperature Precipitation Wind Pressure Humidity
    00:00 +30°C° 0 mm 4 mps 754 mmHg 80%
    01:00 +30°C° 0 mm 4 mps 754 mmHg 80%
    02:00 +29°C° 0 mm 3 mps 754 mmHg 81%
    03:00 +29°C° 0 mm 3 mps 754 mmHg 82%
    04:00 +29°C° 0 mm 3 mps 754 mmHg 82%
    05:00 +29°C° 0 mm 3 mps 754 mmHg 81%
    06:00 +29°C° 0 mm 3 mps 754 mmHg 80%
    07:00 +30°C° 0 mm 3 mps 755 mmHg 79%
    08:00 +31°C° 0 mm 3 mps 755 mmHg 72%
    09:00 +33°C° 0 mm 3 mps 755 mmHg 64%
    10:00 +35°C° 0 mm 4 mps 755 mmHg 57%
    11:00 +35°C° 0 mm 4 mps 754 mmHg 56%
    12:00 +36°C° 0 mm 5 mps 753 mmHg 54%
    13:00 +36°C° 0 mm 5 mps 752 mmHg 53%
    14:00 +35°C° 0 mm 5 mps 752 mmHg 56%
    15:00 +35°C° 0 mm 6 mps 752 mmHg 59%
    16:00 +34°C° 0 mm 6 mps 752 mmHg 63%
    17:00 +33°C° 0 mm 6 mps 752 mmHg 67%
    18:00 +32°C° 0 mm 5 mps 753 mmHg 72%
    19:00 +30°C° 0 mm 5 mps 753 mmHg 77%
    20:00 +30°C° 0 mm 5 mps 753 mmHg 78%
    21:00 +30°C° 0 mm 4 mps 753 mmHg 79%
    22:00 +30°C° 0 mm 4 mps 754 mmHg 79%
    23:00 +30°C° 0 mm 4 mps 753 mmHg 79%
    Show more